When you browse on this site, cookies collect data to enhance your experience and personalize the content and advertising you see.
Visit our Privacy Policy to learn more. By continuing to use the site, you agree to this use of cookies and data.
  • In Deutschland
  • Länderverzeichnis
  • Für 7 Tage
  • Wassertemperatur
  • Wetterkarte
  • Widgets
  • user-avatar
    Anmelden

    Stündliche Wetter Salzburg

    Heute, 11 Dezember, Mittwoch

    Zeit Temperatur Niederschläge Wind Luftdruck Luftfeuchtigkeit
    00:00 -14°C° 0 mm 2 m/S 624 mmHg 73%
    01:00 -12°C° 0 mm 2 m/S 624 mmHg 62%
    02:00 -12°C° 0 mm 2 m/S 624 mmHg 57%
    03:00 -10°C° 0 mm 2 m/S 623 mmHg 52%
    04:00 -9°C° 0 mm 1 m/S 623 mmHg 47%
    05:00 -8°C° 0 mm 1 m/S 622 mmHg 45%
    06:00 -9°C° 0 mm 2 m/S 622 mmHg 43%
    07:00 -8°C° 0 mm 1 m/S 622 mmHg 40%
    08:00 -6°C° 0 mm 1 m/S 622 mmHg 43%
    09:00 -4°C° 0 mm 1 m/S 622 mmHg 46%
    10:00 -2°C° 0 mm 1 m/S 622 mmHg 48%
    11:00 -1°C° 0 mm 1 m/S 622 mmHg 53%
    12:00 0°C° 0 mm 1 m/S 622 mmHg 57%
    13:00 +1°C° 0 mm 1 m/S 622 mmHg 59%
    14:00 0°C° 0 mm 1 m/S 621 mmHg 57%
    15:00 -2°C° 0 mm 1 m/S 620 mmHg 55%
    16:00 -3°C° 0 mm 1 m/S 618 mmHg 53%
    17:00 -4°C° 0 mm 1 m/S 618 mmHg 52%
    18:00 -4°C° 0 mm 1 m/S 618 mmHg 50%
    19:00 -6°C° 0 mm 1 m/S 618 mmHg 48%
    20:00 -6°C° 0 mm 1 m/S 617 mmHg 48%
    21:00 -7°C° 0 mm 1 m/S 617 mmHg 49%
    22:00 -7°C° 0 mm 1 m/S 616 mmHg 49%
    23:00 -7°C° 0 mm 1 m/S 616 mmHg 50%

    Morgen, 12 Dezember, Donnerstag

    Zeit Temperatur Niederschläge Wind Luftdruck Luftfeuchtigkeit
    00:00 -8°C° 0 mm 1 m/S 616 mmHg 51%
    01:00 -8°C° 0 mm 1 m/S 615 mmHg 53%
    02:00 -8°C° 0 mm 1 m/S 615 mmHg 59%
    03:00 -8°C° 0 mm 1 m/S 615 mmHg 66%
    04:00 -8°C° 0 mm 1 m/S 614 mmHg 72%
    05:00 -8°C° 0.2 mm 0 m/S 615 mmHg 78%
    06:00 -8°C° 0.2 mm 0 m/S 615 mmHg 84%
    07:00 -7°C° 0.2 mm 0 m/S 615 mmHg 90%
    08:00 -7°C° 0.2 mm 0 m/S 615 mmHg 90%
    09:00 -6°C° 0.2 mm 0 m/S 615 mmHg 91%
    10:00 -5°C° 0.2 mm 0 m/S 616 mmHg 91%
    11:00 -5°C° 0 mm 0 m/S 616 mmHg 88%
    12:00 -4°C° 0 mm 0 m/S 616 mmHg 85%
    13:00 -4°C° 0 mm 0 m/S 616 mmHg 82%
    14:00 -4°C° 0.1 mm 0 m/S 615 mmHg 85%
    15:00 -5°C° 0.1 mm 0 m/S 614 mmHg 88%
    16:00 -6°C° 0.1 mm 0 m/S 614 mmHg 91%
    17:00 -6°C° 0.1 mm 0 m/S 614 mmHg 93%
    18:00 -7°C° 0.1 mm 0 m/S 613 mmHg 94%
    19:00 -7°C° 0.1 mm 0 m/S 613 mmHg 95%
    20:00 -8°C° 0 mm 1 m/S 612 mmHg 92%
    21:00 -8°C° 0 mm 1 m/S 612 mmHg 90%
    22:00 -9°C° 0 mm 1 m/S 611 mmHg 88%
    23:00 -10°C° 0 mm 2 m/S 610 mmHg 86%

    übermorgen, 13 Dezember, Freitag

    Zeit Temperatur Niederschläge Wind Luftdruck Luftfeuchtigkeit
    00:00 -10°C° 0 mm 2 m/S 610 mmHg 84%
    01:00 -10°C° 0 mm 2 m/S 609 mmHg 82%
    02:00 -12°C° 0 mm 3 m/S 608 mmHg 80%
    03:00 -12°C° 0 mm 3 m/S 607 mmHg 79%
    04:00 -12°C° 0 mm 3 m/S 606 mmHg 78%
    05:00 -12°C° 0 mm 3 m/S 606 mmHg 77%
    06:00 -10°C° 0 mm 3 m/S 605 mmHg 77%
    07:00 -11°C° 0 mm 4 m/S 605 mmHg 76%
    08:00 -9°C° 0 mm 3 m/S 605 mmHg 75%
    09:00 -8°C° 0 mm 3 m/S 605 mmHg 74%
    10:00 -8°C° 0 mm 3 m/S 605 mmHg 73%
    11:00 -7°C° 0 mm 3 m/S 605 mmHg 73%
    12:00 -5°C° 0 mm 2 m/S 605 mmHg 73%
    13:00 -5°C° 0 mm 2 m/S 605 mmHg 74%
    14:00 -5°C° 0.4 mm 2 m/S 605 mmHg 80%
    15:00 -4°C° 0.4 mm 1 m/S 605 mmHg 85%
    16:00 -6°C° 0.4 mm 1 m/S 605 mmHg 91%
    17:00 -6°C° 0 mm 1 m/S 606 mmHg 90%
    18:00 -6°C° 0 mm 1 m/S 606 mmHg 89%
    19:00 -7°C° 0 mm 1 m/S 606 mmHg 87%
    20:00 -7°C° 0 mm 1 m/S 607 mmHg 86%
    21:00 -7°C° 0 mm 1 m/S 607 mmHg 84%
    22:00 -7°C° 0 mm 1 m/S 608 mmHg 82%
    23:00 -7°C° 0.1 mm 1 m/S 609 mmHg 86%

    14 Dezember, Samstag

    Zeit Temperatur Niederschläge Wind Luftdruck Luftfeuchtigkeit
    00:00 -7°C° 0.1 mm 1 m/S 609 mmHg 90%
    01:00 -6°C° 0.1 mm 1 m/S 610 mmHg 94%
    02:00 -7°C° 0.1 mm 1 m/S 611 mmHg 94%
    03:00 -7°C° 0.1 mm 1 m/S 611 mmHg 94%
    04:00 -7°C° 0.1 mm 0 m/S 611 mmHg 94%
    05:00 -8°C° 0 mm 1 m/S 612 mmHg 91%
    06:00 -8°C° 0 mm 1 m/S 612 mmHg 88%
    07:00 -9°C° 0 mm 2 m/S 612 mmHg 86%
    08:00 -8°C° 0 mm 2 m/S 613 mmHg 81%
    09:00 -7°C° 0 mm 2 m/S 614 mmHg 77%
    10:00 -5°C° 0 mm 2 m/S 615 mmHg 72%
    11:00 -4°C° 0.1 mm 2 m/S 615 mmHg 72%
    12:00 -3°C° 0.1 mm 2 m/S 616 mmHg 73%
    13:00 -2°C° 0.1 mm 2 m/S 616 mmHg 73%
    14:00 -2°C° 0 mm 2 m/S 616 mmHg 73%
    15:00 0°C° 0 mm 1 m/S 617 mmHg 74%
    16:00 -1°C° 0 mm 1 m/S 617 mmHg 75%
    17:00 -1°C° 0 mm 1 m/S 617 mmHg 75%
    18:00 -3°C° 0 mm 2 m/S 618 mmHg 75%
    19:00 -3°C° 0 mm 2 m/S 618 mmHg 76%
    20:00 -3°C° 0 mm 2 m/S 618 mmHg 75%
    21:00 -3°C° 0 mm 2 m/S 619 mmHg 74%
    22:00 -5°C° 0 mm 3 m/S 619 mmHg 72%
    23:00 -4°C° 0 mm 2 m/S 619 mmHg 71%

    15 Dezember, Sonntag

    Zeit Temperatur Niederschläge Wind Luftdruck Luftfeuchtigkeit
    00:00 -4°C° 0 mm 2 m/S 619 mmHg 70%
    01:00 -4°C° 0 mm 2 m/S 619 mmHg 68%
    02:00 -4°C° 0 mm 2 m/S 619 mmHg 68%
    03:00 -4°C° 0 mm 2 m/S 619 mmHg 67%
    04:00 -5°C° 0 mm 2 m/S 619 mmHg 66%
    05:00 -5°C° 0 mm 2 m/S 619 mmHg 66%
    06:00 -5°C° 0 mm 2 m/S 619 mmHg 66%
    07:00 -5°C° 0 mm 2 m/S 619 mmHg 67%
    08:00 -4°C° 0 mm 2 m/S 619 mmHg 67%
    09:00 -3°C° 0 mm 2 m/S 620 mmHg 68%
    10:00 -2°C° 0 mm 2 m/S 621 mmHg 68%
    11:00 -2°C° 0 mm 2 m/S 621 mmHg 71%
    12:00 -1°C° 0 mm 2 m/S 621 mmHg 74%
    13:00 +2°C° 0 mm 1 m/S 622 mmHg 77%
    14:00 +2°C° 0 mm 1 m/S 622 mmHg 76%
    15:00 +1°C° 0 mm 1 m/S 622 mmHg 75%
    16:00 0°C° 0 mm 1 m/S 622 mmHg 73%
    17:00 -1°C° 0 mm 1 m/S 622 mmHg 73%
    18:00 -1°C° 0 mm 1 m/S 623 mmHg 73%
    19:00 -3°C° 0 mm 0 m/S 623 mmHg 73%
    20:00 -2°C° 0 mm 1 m/S 623 mmHg 75%
    21:00 -2°C° 0 mm 1 m/S 624 mmHg 76%
    22:00 -2°C° 0 mm 1 m/S 624 mmHg 77%
    23:00 -2°C° 0 mm 1 m/S 624 mmHg 78%

    16 Dezember, Montag

    Zeit Temperatur Niederschläge Wind Luftdruck Luftfeuchtigkeit
    00:00 -2°C° 0 mm 1 m/S 624 mmHg 79%
    01:00 -2°C° 0 mm 1 m/S 624 mmHg 80%
    02:00 -5°C° 0 mm 2 m/S 624 mmHg 79%
    03:00 -5°C° 0 mm 2 m/S 624 mmHg 79%
    04:00 -6°C° 0 mm 2 m/S 623 mmHg 78%
    05:00 -6°C° 0 mm 2 m/S 623 mmHg 78%
    06:00 -6°C° 0 mm 2 m/S 623 mmHg 78%
    07:00 -7°C° 0 mm 3 m/S 623 mmHg 78%
    08:00 -6°C° 0 mm 3 m/S 623 mmHg 78%
    09:00 -5°C° 0 mm 3 m/S 624 mmHg 78%
    10:00 -4°C° 0 mm 3 m/S 624 mmHg 78%
    11:00 -2°C° 0 mm 3 m/S 624 mmHg 79%
    12:00 -1°C° 0 mm 3 m/S 624 mmHg 81%
    13:00 0°C° 0 mm 3 m/S 624 mmHg 82%
    14:00 0°C° 0 mm 3 m/S 623 mmHg 83%
    15:00 -1°C° 0 mm 3 m/S 623 mmHg 83%
    16:00 -1°C° 0 mm 3 m/S 623 mmHg 83%
    17:00 -2°C° 0 mm 3 m/S 623 mmHg 83%
    18:00 -2°C° 0 mm 3 m/S 623 mmHg 83%
    19:00 -2°C° 0 mm 3 m/S 623 mmHg 83%
    20:00 -2°C° 0 mm 3 m/S 623 mmHg 83%
    21:00 -4°C° 0 mm 3 m/S 623 mmHg 82%
    22:00 -4°C° 0 mm 3 m/S 623 mmHg 82%
    23:00 -4°C° 0 mm 3 m/S 623 mmHg 82%
    Mehr zeigen